100LL.CA
Aviation Fuel Pricing for Canadians
Please upgrade your browser - Tested with IE9, FireFox, Chrome, Safari

Fuel Airports Other Help
Prices Economy Info List METAR/TAF Kneeboard Help

Reference Airport: Blue River, BC
N 52 07 29  W 119 17 34

CYCP Blue River, BC
OTHER SITES
FlightAware FltPlan Google Maps SkyVector
WEATHER
METARCYCP 210000Z 00000KT 15SM FEW008 FEW045 BKN075CB BKN160 BKN240 12/09 A3013 RMK SF1SC1CB3AC1CI1 SLP212
REF N 52 07 29  W 119 17 34    Adj NE    17E (2013)
UTC-8(7)    Elev 2265    A5005 A5014 LO2 RCAP
OPR Cariboo Helicopter Skiing (Mike Wiegele Helicopter Skiing) 250-673-8381
Reg PPR Landing fees
FLT PLN NOTAM FILE CYKA
FIC Kamloops 866-WXBRIEF (Toll free within Canada) or 866-541-4101 (Toll free within Canada & USA)
WXMETAR 14-24Z (DT 13-01Z) O/T LWIS WxCam
SERVICES
RWY DATARwy 01(013)/19(193) 5066x60 asphalt Rwy 19 up 1.14% No shoulders or graded area.
APRONApron I, II & IV: rstd to heli. Apron III rstd to fixed wing acft. Apron IV: Enter brg 206? & exit brg 065? (see sketch)
HELIParking Pads 1-9: 20' x 20'
RCRMaint contractor 250-673-8289 Ltd win maint
COMM
ATFtfc 123.2 5NM 5200 ASL
NAV
CAUTIONShoulder drops abruptly at edge of pavement. Wildlife in vicinity of rwy. Extv heli activity in the area.
Effective 0901Z 0901Z 24 May 2018 to 0901Z 19 July 2018


Please Send Updates!

Desktop Version ]  [ Mobile Version ]  [ Disclaimer ]